Georgetown, DE

6:07 PM EST on November 23, 2017 (GMT -0500)
Sussex County

Weather History for KGED - March, 2014

Change the Weather History Date:

Sunday, March 2, 2014

  Actual Average Record
Temperature  
Mean Temperature 47 °F 41 °F  
Max Temperature 63 °F 50 °F 75 °F (1972)
Min Temperature 30 °F 31 °F 11 °F (1978)
Degree Days  
Heating Degree Days 18 24  
Month to date heating degree days 52 49  
Since 1 July heating degree days 3407 3329  
Cooling Degree Days 0 0  
Month to date cooling degree days 0 0  
Year to date cooling degree days 0 0  
Moisture  
Dew Point 33 °F    
Average Humidity 66    
Maximum Humidity 92    
Minimum Humidity 39    
Precipitation  
Precipitation 0.09 in 0.11 in 0.84 in (1985)
Month to date precipitation 0.09 0.20  
Year to date precipitation 7.27 5.91  
Sea Level Pressure  
Sea Level Pressure 30.05 in    
Wind  
Wind Speed 7 mph (NNE)    
Max Wind Speed 15 mph    
Max Gust Speed 20 mph    
Visibility 7 miles    
Events Rain    
T = Trace of Precipitation, MM = Missing Value Source: NWS Daily Summary

Daily Weather History Graph

Daily Weather History Graph

Search for Another Location

Airport or City:

Trip Planner

Search our weather history database for the weather conditions in past years. The results will help you decide how hot, cold, wet, or windy it might be!

Date:

Astronomy

Mar. 02, 2014 Rise Set
Actual Time 6:32 AM EST 5:55 PM EST
Civil Twilight 6:05 AM EST 6:22 PM EST
Nautical Twilight 5:34 AM EST 6:52 PM EST
Astronomical Twilight 5:04 AM EST 7:23 PM EST
Moon 7:03 AM EST (3/2) 7:47 PM EST (3/2)
Length of Visible Light 12h 16m
Length of Day
11h 23m
Waxing Crescent, 3% of the Moon is Illuminated
Mar 2
Waxing Crescent
Mar 8
First Quarter
Mar 16
Full
Mar 23
Last Quarter
Mar 30
New

Hourly Weather History & Observations

Time (EST) Temp. Windchill Dew Point Humidity Pressure Visibility Wind Dir Wind Speed Gust Speed Precip Events Conditions
12:54 AM 30.9 °F 27.5 °F 26.1 °F 82% 30.19 in 10.0 mi South 3.5 mph - N/A   Scattered Clouds
1:54 AM 33.1 °F 27.7 °F 26.1 °F 75% 30.17 in 10.0 mi South 5.8 mph - N/A   Mostly Cloudy
2:54 AM 32.0 °F 26.4 °F 27.0 °F 82% 30.14 in 10.0 mi SSW 5.8 mph - N/A   Clear
3:54 AM 32.0 °F 26.4 °F 27.0 °F 82% 30.14 in 10.0 mi SSW 5.8 mph - N/A   Mostly Cloudy
4:54 AM 32.0 °F 27.5 °F 28.0 °F 85% 30.12 in 10.0 mi SSW 4.6 mph - N/A   Clear
5:54 AM 32.0 °F 27.5 °F 28.0 °F 85% 30.12 in 10.0 mi SSW 4.6 mph - N/A   Clear
6:54 AM 34.0 °F 28.8 °F 28.9 °F 82% 30.10 in 8.0 mi South 5.8 mph - N/A   Clear
7:54 AM 39.0 °F 34.8 °F 33.1 °F 79% 30.11 in 10.0 mi SSW 5.8 mph - N/A   Clear
8:54 AM 46.0 °F 40.6 °F 33.1 °F 61% 30.10 in 10.0 mi SW 11.5 mph - N/A   Clear
9:54 AM 51.1 °F - 33.1 °F 50% 30.08 in 10.0 mi WSW 8.1 mph - N/A   Partly Cloudy
10:54 AM 57.0 °F - 35.1 °F 44% 30.05 in 10.0 mi SW 9.2 mph - N/A   Clear
11:54 AM 60.1 °F - 36.0 °F 41% 30.01 in 10.0 mi Variable 5.8 mph - N/A   Clear
12:54 PM 60.1 °F - 37.0 °F 42% 29.98 in 10.0 mi NE 12.7 mph - N/A   Clear
1:54 PM 57.0 °F - 35.1 °F 44% 29.96 in 10.0 mi NE 10.4 mph - N/A   Clear
2:54 PM 48.9 °F - 32.0 °F 52% 29.98 in 10.0 mi NE 12.7 mph - N/A   Overcast
3:54 PM 48.0 °F - 30.0 °F 50% 30.00 in 10.0 mi NNE 8.1 mph - N/A   Overcast
4:54 PM 42.1 °F 38.4 °F 34.0 °F 73% 30.02 in 7.0 mi NNE 5.8 mph - 0.01 in Rain Light Rain
5:54 PM 39.9 °F 35.8 °F 35.1 °F 83% 30.03 in 5.0 mi NNE 5.8 mph - 0.02 in Rain Light Rain
6:54 PM 39.0 °F 35.7 °F 36.0 °F 89% 30.01 in 5.0 mi ENE 4.6 mph - 0.01 in Rain Light Rain
7:54 PM 39.0 °F 34.8 °F 35.1 °F 86% 30.01 in 4.0 mi NNE 5.8 mph - 0.00 in Rain Light Rain
8:54 PM 37.9 °F 33.5 °F 35.1 °F 89% 30.01 in 4.0 mi North 5.8 mph - 0.01 in Rain Light Rain
9:54 PM 37.0 °F 32.4 °F 35.1 °F 93% 30.01 in 2.5 mi NNE 5.8 mph - 0.01 in Rain Light Rain
10:05 PM 37.0 °F 32.4 °F 35.1 °F 93% 30.01 in 2.5 mi North 5.8 mph - 0.01 in Rain Light Rain
10:38 PM 37.0 °F 32.4 °F 35.1 °F 93% 30.00 in 2.0 mi NNE 5.8 mph - 0.02 in Rain Light Rain
10:46 PM 37.0 °F 30.4 °F 34.0 °F 89% 30.00 in 2.0 mi NNE 9.2 mph - 0.02 in Rain Light Rain
10:54 PM 37.0 °F 31.0 °F 34.0 °F 89% 30.01 in 2.0 mi North 8.1 mph - 0.02 in Rain Light Rain
11:46 PM 37.0 °F 31.0 °F 34.0 °F 89% 29.98 in 2.5 mi NNE 8.1 mph - 0.01 in   Overcast
11:54 PM 37.0 °F 33.3 °F 35.1 °F 93% 29.97 in 2.0 mi NNE 4.6 mph - 0.01 in   Overcast